| time (UTC) | temp F | wind direction | speed knots | gust knots | rain 1hr in | rain 24hr in | rain mn in | humidity % | barometer mb |
| 20260901041606 | 49 | 0 | 0.0 | 0.0 | 0.00 | 0.00 | 0.00 | 90 | 1023.1 |
| 20260901040105 | 49 | 0 | 0.0 | 0.0 | 0.00 | 0.00 | 0.00 | 90 | 1023.1 |
| 20260901034602 | 50 | 0 | 0.0 | 0.0 | 0.00 | 0.00 | 0.00 | 90 | 1023.1 |
| 20260901033120 | 50 | 0 | 0.0 | 0.0 | 0.00 | 0.00 | 0.00 | 90 | 1023.3 |
| 20260901031600 | 50 | 0 | 0.0 | 0.0 | 0.00 | 0.00 | 0.00 | 89 | 1023.5 |
| 20260901030108 | 51 | 0 | 0.0 | 0.0 | 0.00 | 0.00 | 0.00 | 89 | 1023.6 |
| 20260901024601 | 51 | 0 | 0.0 | 0.0 | 0.00 | 0.00 | 0.00 | 89 | 1023.7 |
| 20260901023110 | 51 | 0 | 0.0 | 0.0 | 0.00 | 0.00 | 0.00 | 89 | 1023.8 |
| 20260901021606 | 52 | 0 | 0.0 | 0.0 | 0.00 | 0.00 | 0.00 | 88 | 1023.8 |
| 20260901020157 | 52 | 0 | 0.0 | 0.0 | 0.00 | 0.00 | 0.00 | 88 | 1023.9 |
| 20260901014608 | 53 | 0 | 0.0 | 0.0 | 0.00 | 0.00 | 0.00 | 87 | 1024.0 |
| 20260901013114 | 53 | 0 | 0.0 | 0.0 | 0.00 | 0.00 | 0.00 | 86 | 1024.0 |
| 20260901011621 | 54 | 0 | 0.0 | 0.0 | 0.00 | 0.00 | 0.00 | 86 | 1024.0 |
| 20260901010117 | 54 | 0 | 0.0 | 0.0 | 0.00 | 0.00 | 0.00 | 85 | 1024.0 |
| 20260901004608 | 55 | 0 | 0.0 | 0.0 | 0.00 | 0.00 | 0.00 | 84 | 1024.1 |
| 20260901003104 | 56 | 0 | 0.0 | 0.0 | 0.00 | 0.00 | 0.00 | 82 | 1024.3 |
| 20260901001606 | 57 | 0 | 0.0 | 0.0 | 0.00 | 0.00 | 0.00 | 80 | 1024.4 |
| 20260901000106 | 58 | 0 | 0.0 | 0.0 | 0.00 | 0.00 | 0.00 | 79 | 1024.5 |
| 20260831234608 | 59 | 0 | 0.0 | 0.0 | 0.00 | 0.00 | 0.00 | 79 | 1024.5 |
| 20260831233107 | 59 | 0 | 0.0 | 0.0 | 0.00 | 0.00 | 0.00 | 77 | 1024.5 |
| 20260831231602 | 60 | 0 | 0.0 | 0.0 | 0.00 | 0.00 | 0.00 | 75 | 1024.7 |
| 20260831230114 | 60 | 0 | 0.0 | 0.0 | 0.00 | 0.00 | 0.00 | 74 | 1024.7 |
| 20260831224608 | 60 | 0 | 0.0 | 0.0 | 0.00 | 0.00 | 0.00 | 73 | 1024.6 |
| 20260831223107 | 59 | 0 | 0.0 | 0.0 | 0.00 | 0.00 | 0.00 | 76 | 1024.6 |
| 20260831221610 | 59 | 0 | 0.0 | 0.0 | 0.00 | 0.00 | 0.00 | 76 | 1024.5 |
| 20260831220115 | 60 | 0 | 0.0 | 0.0 | 0.00 | 0.00 | 0.00 | 75 | 1024.4 |
| 20260831214613 | 60 | 0 | 0.0 | 0.0 | 0.00 | 0.00 | 0.00 | 74 | 1024.3 |
| 20260831213104 | 60 | 0 | 0.0 | 0.0 | 0.00 | 0.00 | 0.00 | 74 | 1024.2 |
| 20260831211610 | 60 | 0 | 0.0 | 0.0 | 0.00 | 0.00 | 0.00 | 74 | 1024.2 |
| 20260831210106 | 60 | 0 | 0.0 | 0.0 | 0.00 | 0.00 | 0.00 | 74 | 1024.2 |
| 20260831204603 | 60 | 0 | 0.0 | 0.0 | 0.00 | 0.00 | 0.00 | 74 | 1024.1 |
| 20260831203108 | 60 | 0 | 0.0 | 0.0 | 0.00 | 0.00 | 0.00 | 74 | 1024.1 |
| 20260831201603 | 60 | 0 | 0.0 | 0.0 | 0.00 | 0.00 | 0.00 | 74 | 1023.9 |
| 20260831200111 | 61 | 0 | 0.0 | 0.0 | 0.00 | 0.00 | 0.00 | 73 | 1023.9 |
| 20260831194616 | 61 | 0 | 0.0 | 0.0 | 0.00 | 0.00 | 0.00 | 71 | 1023.8 |
| 20260831193106 | 62 | 0 | 0.0 | 0.0 | 0.00 | 0.00 | 0.00 | 69 | 1023.7 |
| 20260831191601 | 63 | 0 | 0.0 | 0.0 | 0.00 | 0.00 | 0.00 | 69 | 1023.7 |
| 20260831190116 | 63 | 0 | 0.0 | 0.0 | 0.00 | 0.00 | 0.00 | 69 | 1023.7 |
| 20260831184610 | 64 | 0 | 0.0 | 0.0 | 0.00 | 0.00 | 0.00 | 67 | 1023.4 |
| 20260831183118 | 65 | 0 | 0.0 | 0.0 | 0.00 | 0.00 | 0.00 | 66 | 1023.5 |
| 20260831181606 | 66 | 0 | 0.0 | 0.0 | 0.00 | 0.00 | 0.00 | 64 | 1023.4 |
| 20260831180119 | 66 | 0 | 0.0 | 3.5 | 0.00 | 0.00 | 0.00 | 64 | 1023.2 |
| 20260831174601 | 67 | 180 | 0.9 | 4.3 | 0.00 | 0.00 | 0.00 | 62 | 1023.3 |
| 20260831173104 | 67 | 155 | 0.9 | 4.3 | 0.00 | 0.00 | 0.00 | 61 | 1023.2 |
| 20260831171606 | 68 | 0 | 1.7 | 6.1 | 0.00 | 0.00 | 0.00 | 60 | 1023.3 |
| 20260831170107 | 68 | 196 | 0.9 | 5.2 | 0.00 | 0.00 | 0.00 | 58 | 1023.4 |
| 20260831164606 | 69 | 215 | 1.7 | 5.2 | 0.00 | 0.00 | 0.00 | 58 | 1023.4 |
| 20260831163107 | 69 | 155 | 1.7 | 7.0 | 0.00 | 0.00 | 0.00 | 58 | 1023.4 |
| 20260831161606 | 70 | 169 | 1.7 | 8.7 | 0.00 | 0.00 | 0.00 | 58 | 1023.4 |
| 20260831160109 | 70 | 121 | 2.6 | 7.0 | 0.00 | 0.00 | 0.00 | 58 | 1023.6 |
| 20260831154628 | 70 | 160 | 0.9 | 8.7 | 0.00 | 0.00 | 0.00 | 59 | 1023.6 |
| 20260831153106 | 71 | 189 | 2.6 | 8.7 | 0.00 | 0.00 | 0.00 | 58 | 1023.7 |
| 20260831151608 | 71 | 172 | 1.7 | 6.1 | 0.00 | 0.00 | 0.00 | 59 | 1023.7 |
| 20260831150113 | 70 | 119 | 2.6 | 9.6 | 0.00 | 0.00 | 0.00 | 58 | 1023.8 |
| 20260831144607 | 73 | 129 | 1.7 | 7.8 | 0.00 | 0.00 | 0.00 | 54 | 1023.7 |
| 20260831143106 | 72 | 181 | 2.6 | 8.7 | 0.00 | 0.00 | 0.00 | 55 | 1023.7 |
| 20260831141614 | 71 | 200 | 3.5 | 11.3 | 0.00 | 0.00 | 0.00 | 57 | 1023.7 |
| 20260831140107 | 71 | 263 | 3.5 | 10.4 | 0.00 | 0.00 | 0.00 | 55 | 1023.8 |
| 20260831134606 | 72 | 150 | 3.5 | 9.6 | 0.00 | 0.00 | 0.00 | 54 | 1023.8 |
| 20260831133108 | 71 | 138 | 4.3 | 11.3 | 0.00 | 0.00 | 0.00 | 54 | 1024.0 |
| 20260831131605 | 72 | 213 | 1.7 | 7.8 | 0.00 | 0.00 | 0.00 | 52 | 1023.9 |
| 20260831130109 | 72 | 55 | 2.6 | 7.8 | 0.00 | 0.00 | 0.00 | 53 | 1024.1 |
| 20260831124604 | 71 | 90 | 1.7 | 9.6 | 0.00 | 0.00 | 0.00 | 53 | 1023.9 |
| 20260831123105 | 70 | 141 | 2.6 | 8.7 | 0.00 | 0.00 | 0.00 | 57 | 1023.9 |
| 20260831121601 | 70 | 141 | 3.5 | 7.0 | 0.00 | 0.00 | 0.00 | 58 | 1024.0 |
| 20260831120127 | 69 | 205 | 3.5 | 7.8 | 0.00 | 0.00 | 0.00 | 62 | 1023.9 |
| 20260831114608 | 67 | 165 | 2.6 | 7.0 | 0.00 | 0.00 | 0.00 | 68 | 1023.9 |
| 20260831113108 | 67 | 120 | 1.7 | 7.0 | 0.00 | 0.00 | 0.00 | 66 | 1024.1 |
| 20260831111615 | 66 | 158 | 2.6 | 6.1 | 0.00 | 0.00 | 0.00 | 69 | 1024.2 |
| 20260831110110 | 66 | 133 | 0.9 | 6.1 | 0.00 | 0.00 | 0.00 | 68 | 1024.2 |
| 20260831104605 | 66 | 279 | 1.7 | 8.7 | 0.00 | 0.00 | 0.00 | 70 | 1024.4 |
| 20260831103108 | 65 | 138 | 1.7 | 4.3 | 0.00 | 0.00 | 0.00 | 74 | 1024.2 |
| 20260831101610 | 64 | 107 | 2.6 | 6.1 | 0.00 | 0.00 | 0.00 | 75 | 1024.2 |
| 20260831100114 | 64 | 163 | 1.7 | 7.8 | 0.00 | 0.00 | 0.00 | 76 | 1024.1 |
| 20260831094608 | 63 | 166 | 1.7 | 6.1 | 0.00 | 0.00 | 0.00 | 77 | 1024.3 |
| 20260831093106 | 63 | 158 | 1.7 | 7.0 | 0.00 | 0.00 | 0.00 | 77 | 1024.2 |
| 20260831091606 | 63 | 70 | 1.7 | 7.0 | 0.00 | 0.00 | 0.00 | 77 | 1024.1 |
| 20260831090101 | 62 | 171 | 0.9 | 7.0 | 0.00 | 0.00 | 0.00 | 82 | 1024.2 |
| 20260831084609 | 61 | 157 | 1.7 | 5.2 | 0.00 | 0.00 | 0.00 | 83 | 1024.0 |
| 20260831083107 | 61 | 87 | 1.7 | 7.8 | 0.00 | 0.00 | 0.00 | 83 | 1023.9 |
| 20260831081610 | 61 | 163 | 1.7 | 6.1 | 0.00 | 0.00 | 0.00 | 83 | 1023.7 |
| 20260831080139 | 61 | 148 | 0.9 | 6.1 | 0.00 | 0.00 | 0.00 | 83 | 1023.6 |
| 20260831074607 | 61 | 123 | 1.7 | 5.2 | 0.00 | 0.00 | 0.00 | 82 | 1023.4 |
| 20260831073118 | 61 | 163 | 1.7 | 7.0 | 0.00 | 0.00 | 0.00 | 82 | 1023.4 |
| 20260831071609 | 61 | 137 | 1.7 | 3.5 | 0.00 | 0.00 | 0.00 | 83 | 1023.2 |
| 20260831070109 | 60 | 234 | 1.7 | 5.2 | 0.00 | 0.00 | 0.00 | 85 | 1023.1 |
| 20260831064609 | 60 | 140 | 0.9 | 3.5 | 0.00 | 0.00 | 0.00 | 85 | 1023.1 |
| 20260831063107 | 59 | 113 | 0.9 | 4.3 | 0.00 | 0.00 | 0.00 | 87 | 1023.0 |
| 20260831061606 | 59 | 167 | 0.0 | 3.5 | 0.00 | 0.00 | 0.00 | 86 | 1022.9 |
| 20260831060113 | 59 | 164 | 1.7 | 4.3 | 0.00 | 0.00 | 0.00 | 87 | 1022.8 |
| 20260831054609 | 59 | 0 | 0.0 | 4.3 | 0.00 | 0.00 | 0.00 | 87 | 1022.8 |
| 20260831053108 | 59 | 0 | 0.0 | 5.2 | 0.00 | 0.00 | 0.00 | 86 | 1022.7 |
| 20260831051610 | 59 | 0 | 0.9 | 5.2 | 0.00 | 0.00 | 0.00 | 87 | 1022.4 |
| 20260831050112 | 59 | 146 | 0.0 | 3.5 | 0.00 | 0.00 | 0.00 | 87 | 1022.3 |
| 20260831044608 | 60 | 142 | 0.9 | 6.1 | 0.00 | 0.00 | 0.00 | 87 | 1022.3 |
| 20260831043105 | 60 | 178 | 0.0 | 2.6 | 0.00 | 0.00 | 0.00 | 87 | 1022.3 |